[[{"header":{"parameterUnit":"m.s-1","parameterCategory":1,"la1":30.2991,"la2":30.254,"lo1":-89.0895,"lo2":-89.0444,"dy":0.0017,"dx":0.0017,"nx":28,"ny":28,"refTime":"2024-10-17T21:00:00:Z","depth":0,"parameterNumber":2,"parameterNumberName":"U-component_of_WINDS"},"data":[0,0,0,0,0,0,0,0,0,0,0,0,0,0,0,0,0,0,0,0,0,0,0,0,0,0,0,0,0,0,0,0,0,0,0,0,0,0,0,0,0,0,0,0,0,0,0,0,0,0,0,0,0,0,0,0,0,0,-4.1056,-4.1057,0,-4.111,-4.1111,-4.1111,-4.0934,-4.0929,-4.0923,-4.0918,-4.0977,-4.0984,-4.099,0,0,0,0,0,0,0,0,0,0,0,0,0,-4.0804,-4.0809,-4.1056,-4.1057,-4.1058,-4.111,-4.1111,-4.1111,-4.0935,-4.0929,-4.0922,-4.0916,-4.0975,-4.0983,-4.0991,0,0,0,0,0,0,0,0,0,0,0,0,0,-4.0891,-4.0811,-4.1056,-4.0976,-4.0969,-4.111,-4.1111,-4.1112,-4.0936,-4.0928,-4.092,-4.0913,-4.0973,-4.0982,-4.0992,-4.1214,0,0,-4.1022,-4.1026,0,0,0,0,0,0,0,0,-4.0887,-4.0901,-4.0987,-4.0982,-4.0974,-4.1007,-4.1043,-4.1146,-4.0938,-4.0949,-4.0918,-4.0909,-4.0994,-4.1002,-4.1029,-4.1217,-4.1219,-4.1023,-4.1029,-4.1033,-4.1036,0,0,0,0,0,0,0,-4.0881,-4.0898,-4.1078,-4.0989,-4.0981,-4.0938,-4.0942,-4.1062,-4.1016,-4.0948,-4.0935,-4.0943,-4.0989,-4.102,-4.103,-4.122,-4.1023,-4.1031,-4.1038,-4.1041,-4.1592,-4.16,0,0,0,0,0,0,-4.0885,-4.0894,-4.1076,-4.1079,-4.091,-4.0949,-4.0953,-4.1005,-4.1014,-4.1008,-4.095,-4.0935,-4.1008,-4.1018,-4.1031,-4.1292,-4.1033,-4.1042,-4.1048,-4.1583,-4.1594,-4.1603,0,0,0,0,0,0,-4.088,-4.0903,-4.1074,-4.0983,-4.1001,-4.0962,-4.1022,-4.101,-4.1041,-4.1016,-4.1008,-4.0991,-4.1002,-4.1017,-4.1169,-4.1291,-4.1047,-4.1056,-4.1573,-4.1587,-4.1599,-4.1815,0,0,0,0,0,0,-4.0874,-4.0902,-4.0986,-4.0986,-4.1007,-4.1211,-4.1029,-4.1017,-4.1058,-4.1039,-4.1052,-4.1046,-4.0997,-4.1156,-4.1179,-4.1301,-4.1063,-4.1562,-4.1579,-4.1594,-4.1797,-4.1834,-4.1866,0,0,0,0,0,-4.0865,-4.1045,-4.0991,-4.1014,-4.111,-4.1219,-4.1231,-4.1169,-4.1069,-4.1153,-4.1136,-4.1046,-4.1274,-4.1173,-4.1198,-4.1324,-4.1554,-4.1574,-4.1593,-4.1782,-4.1827,-4.1865,0,0,0,0,0,0,-4.1062,-4.1044,-4.0983,-4.1169,-4.1196,-4.1188,-4.1292,-4.1218,-4.1276,-4.1256,-4.1177,-4.1182,-4.1349,-4.1351,-4.1239,-4.1539,-4.1397,-4.1423,-4.1532,-4.1575,-4.1608,-4.1605,-4.1072,0,0,0,0,0,-4.1126,-4.1215,-4.1194,-4.136,-4.1377,-4.1333,-4.1378,-4.1327,-4.1353,-4.1365,-4.1359,-4.1389,-4.1467,-4.1521,-4.1591,-4.1796,-4.1797,-4.1895,-4.1929,-4.1958,-4.1981,-4.209,-4.2134,-4.1668,-4.1667,-4.1667,0,0,-4.1261,-4.1262,-4.1323,-4.14,-4.1415,-4.151,-4.1344,-4.1451,-4.152,-4.1381,-4.1524,-4.1522,-4.155,-4.173,-4.1809,-4.1737,-4.211,-4.1983,-4.2005,-4.2014,-4.2115,-4.2159,-4.2199,-4.1681,-4.1678,-4.1676,0,0,-4.1556,-4.1565,-4.1704,-4.1723,-4.1748,-4.1717,-4.1751,-4.1754,-4.1746,-4.1889,-4.1786,-4.1868,-4.2004,-4.2028,-4.2058,-4.2361,-4.228,-4.2386,-4.2567,-4.2674,-4.2711,-4.2743,-4.2852,-4.2892,-4.2409,-4.241,-4.241,0,-4.1721,-4.1858,-4.1786,-4.1899,-4.1936,-4.1813,-4.1954,-4.1975,-4.2023,-4.2052,-4.197,-4.2138,-4.2148,-4.2332,-4.2406,-4.2434,-4.2471,-4.2385,-4.2711,-4.2743,-4.2772,-4.2875,-4.2916,-4.2423,-4.2421,-4.242,-4.2419,0,-4.206,-4.2157,-4.2266,-4.2314,-4.2363,-4.249,-4.2438,-4.2497,-4.2442,-4.242,-4.2567,-4.2574,-4.2644,-4.2683,-4.2631,-4.2861,-4.2815,-4.2724,-4.258,-4.283,-4.2926,-4.2965,-4.2441,-4.2437,-4.2433,-4.243,0,0,-4.2482,-4.2487,-4.2529,-4.2549,-4.2566,-4.264,-4.2762,-4.2828,-4.2881,-4.2917,-4.3018,-4.3136,-4.3051,-4.3085,-4.3035,-4.3129,-4.3369,-4.3025,-4.3025,-4.309,-4.3623,-4.3693,-4.374,-4.3315,-4.3322,-4.3328,-4.3621,0,-4.2773,-4.2979,-4.2917,-4.3126,-4.3215,-4.3098,-4.3204,-4.3227,-4.321,-4.3283,-4.3263,-4.3349,-4.3229,-4.325,-4.3337,-4.3322,-4.3476,-4.3299,-4.3409,-4.3414,-4.3408,-4.379,-4.3864,-4.4141,-4.3658,-4.3664,-4.3669,0,-4.3139,-4.3189,-4.3407,-4.3409,-4.3444,-4.3541,-4.3597,-4.3668,-4.3692,-4.3672,-4.3711,-4.3641,-4.3761,-4.3615,-4.378,-4.3661,-4.3702,-4.3701,-4.371,-4.372,-4.3558,-4.3811,-4.4228,-4.427,-4.3727,-4.3722,-4.3718,0,-4.3427,-4.3548,-4.3694,-4.3714,-4.3721,-4.3791,-4.3798,-4.3813,-4.3857,-4.3907,-4.3935,-4.3998,-4.4034,-4.4085,-4.4034,-4.3932,-4.4207,-4.4057,-4.4196,-4.4198,-4.4261,-4.4258,-4.4692,-4.4285,-4.4285,-4.4284,-4.4283,0,-4.3759,-4.3897,-4.3823,-4.3913,-4.4064,-4.3991,-4.4143,-4.4136,-4.4151,-4.4238,-4.4141,-4.4225,-4.4152,-4.423,-4.4191,-4.4334,-4.435,-4.4339,-4.4328,-4.4349,-4.4351,-4.4376,-4.4356,-4.4295,-4.4292,-4.429,-4.4288,0,-4.4106,-4.4062,-4.4213,-4.4206,-4.4208,-4.432,-4.4314,-4.4398,-4.4372,-4.4484,-4.4506,-4.4467,-4.4554,-4.4507,-4.4597,-4.4571,-4.4757,-4.4718,-4.4749,-4.4739,-4.4882,-4.487,-4.5348,-4.5408,-4.4962,-4.4967,-4.497,0,-4.4322,-4.4425,-4.4429,-4.4479,-4.4492,-4.4575,-4.4619,-4.4551,-4.4601,-4.4636,-4.4716,-4.4793,-4.4852,-4.4996,-4.4977,-4.5045,-4.5008,-4.5171,-4.5018,-4.5036,-4.5012,-4.5007,-4.5018,-4.5203,-4.5208,-4.5212,-4.5216,0,-4.4709,-4.4682,-4.4748,-4.4809,-4.4864,-4.4908,-4.4943,-4.4991,-4.4924,-4.4985,-4.5072,-4.5117,-4.5208,-4.5287,-4.5345,-4.5352,-4.5275,-4.5264,-4.53,-4.5324,-4.5338,-4.5333,-4.4835,-4.5254,-4.525,-4.5247,-4.5245,-4.5243,-4.4998,-4.5084,-4.51,-4.5178,-4.5197,-4.5233,-4.5311,-4.5295,-4.5365,-4.5433,-4.5389,-4.5492,-4.5512,-4.5582,-4.56,-4.568,-4.5614,-4.5667,-4.568,-4.5694,-4.5714,-4.5324,-4.569,-4.5689,-4.5688,-4.5687,-4.5686,0,-4.5381,-4.5385,-4.5457,-4.551,-4.5572,-4.549,-4.5525,-4.5583,-4.5674,-4.5699,-4.5758,-4.5858,-4.5934,-4.592,-4.5989,-4.6056,-4.6022,-4.6077,-4.6072,-4.6075,-4.5768,-4.573,-4.6103,-4.6103,-4.6103,-4.6103,-4.6103,-4.6103,-4.5588,-4.573,-4.5705,-4.5855,-4.5858,-4.5957,-4.5984,-4.6017,-4.6037,-4.6152,-4.6214,-4.6204,-4.6214,-4.6283,-4.6349,-4.6343,-4.6374,-4.6442,-4.6424,-4.6138,-4.6096,-4.6057,-4.6021,-4.6449,-4.645,-4.6724,-4.6726,-4.6728]},{"header":{"parameterUnit":"m.s-1","parameterCategory":1,"la1":30.2991,"la2":30.254,"lo1":-89.0895,"lo2":-89.0444,"dy":0.0017,"dx":0.0017,"nx":28,"ny":28,"refTime":"2024-10-17T21:00:00:Z","depth":0,"parameterNumber":3,"parameterNumberName":"V-component_of_WINDS"},"data":[0,0,0,0,0,0,0,0,0,0,0,0,0,0,0,0,0,0,0,0,0,0,0,0,0,0,0,0,0,0,0,0,0,0,0,0,0,0,0,0,0,0,0,0,0,0,0,0,0,0,0,0,0,0,0,0,0,0,-3.2396,-3.2396,0,-3.2395,-3.2395,-3.2395,-3.2385,-3.2385,-3.2385,-3.2384,-3.2381,-3.2381,-3.2381,0,0,0,0,0,0,0,0,0,0,0,0,0,-3.2385,-3.2385,-3.2396,-3.2396,-3.2396,-3.2395,-3.2395,-3.2395,-3.2385,-3.2385,-3.2385,-3.2384,-3.2381,-3.2381,-3.2381,0,0,0,0,0,0,0,0,0,0,0,0,0,-3.2387,-3.2386,-3.2396,-3.2391,-3.2391,-3.2395,-3.2395,-3.2395,-3.2385,-3.2385,-3.2385,-3.2384,-3.2381,-3.2381,-3.2381,-3.2389,0,0,-3.2381,-3.2381,0,0,0,0,0,0,0,0,-3.2387,-3.2388,-3.2392,-3.2391,-3.2391,-3.239,-3.239,-3.2393,-3.2385,-3.2387,-3.2384,-3.2384,-3.2384,-3.2384,-3.2384,-3.2389,-3.2388,-3.2381,-3.2382,-3.2382,-3.2382,0,0,0,0,0,0,0,-3.2387,-3.2388,-3.2395,-3.2392,-3.2391,-3.2387,-3.2387,-3.239,-3.2387,-3.2387,-3.2386,-3.2386,-3.2383,-3.2384,-3.2384,-3.2388,-3.2381,-3.2382,-3.2382,-3.2382,-3.2396,-3.2396,0,0,0,0,0,0,-3.2388,-3.2388,-3.2395,-3.2395,-3.2388,-3.2388,-3.2388,-3.239,-3.2387,-3.2387,-3.2387,-3.2386,-3.2384,-3.2384,-3.2384,-3.2391,-3.2382,-3.2382,-3.2382,-3.2395,-3.2396,-3.2396,0,0,0,0,0,0,-3.2388,-3.2389,-3.2395,-3.2391,-3.2392,-3.2388,-3.2391,-3.2391,-3.2391,-3.2387,-3.2386,-3.2388,-3.2384,-3.2384,-3.2387,-3.2391,-3.2382,-3.2382,-3.2395,-3.2396,-3.2396,-3.2406,0,0,0,0,0,0,-3.2388,-3.2389,-3.2393,-3.2392,-3.2392,-3.24,-3.2392,-3.2391,-3.2392,-3.2391,-3.2388,-3.2387,-3.2383,-3.2387,-3.2387,-3.2391,-3.2382,-3.2395,-3.2395,-3.2396,-3.2406,-3.2407,-3.2408,0,0,0,0,0,-3.2387,-3.2396,-3.2394,-3.2395,-3.2398,-3.2401,-3.2401,-3.2397,-3.2392,-3.2395,-3.2392,-3.2387,-3.239,-3.2387,-3.2388,-3.2391,-3.2395,-3.2395,-3.2396,-3.2405,-3.2407,-3.2408,0,0,0,0,0,0,-3.2399,-3.2396,-3.2393,-3.2402,-3.2402,-3.2399,-3.2403,-3.2399,-3.2399,-3.2398,-3.2392,-3.2392,-3.2395,-3.2394,-3.2391,-3.2397,-3.2391,-3.2392,-3.2398,-3.24,-3.2401,-3.2401,-3.2382,0,0,0,0,0,-3.2402,-3.2406,-3.2403,-3.2411,-3.2411,-3.2407,-3.2408,-3.2405,-3.2404,-3.2403,-3.2401,-3.2399,-3.2399,-3.2399,-3.2399,-3.2405,-3.2403,-3.2407,-3.2409,-3.241,-3.241,-3.241,-3.2412,-3.2398,-3.2398,-3.2398,0,0,-3.241,-3.2409,-3.2411,-3.2413,-3.2413,-3.2415,-3.2407,-3.2411,-3.2412,-3.2404,-3.2407,-3.2404,-3.2401,-3.2405,-3.2407,-3.2404,-3.2413,-3.241,-3.2411,-3.2411,-3.2411,-3.2412,-3.2414,-3.2398,-3.2398,-3.2398,0,0,-3.2424,-3.2425,-3.243,-3.2429,-3.2428,-3.2425,-3.2426,-3.2423,-3.2421,-3.2424,-3.2418,-3.2418,-3.2419,-3.2417,-3.2415,-3.2425,-3.242,-3.2425,-3.2432,-3.2432,-3.2433,-3.2434,-3.2436,-3.2437,-3.2426,-3.2426,-3.2426,0,-3.2433,-3.2437,-3.2433,-3.2436,-3.2436,-3.2429,-3.2433,-3.2432,-3.2431,-3.243,-3.2427,-3.2426,-3.2424,-3.2426,-3.2428,-3.2428,-3.2428,-3.2426,-3.2434,-3.2435,-3.2435,-3.2437,-3.2438,-3.2427,-3.2427,-3.2427,-3.2427,0,-3.2447,-3.245,-3.2454,-3.2453,-3.2453,-3.2457,-3.2452,-3.2452,-3.2448,-3.2445,-3.2446,-3.2443,-3.2441,-3.2441,-3.2437,-3.2442,-3.244,-3.2435,-3.2429,-3.2437,-3.2439,-3.2439,-3.2428,-3.2427,-3.2427,-3.2427,0,0,-3.247,-3.2465,-3.2466,-3.2464,-3.2461,-3.2462,-3.2464,-3.2463,-3.2463,-3.2461,-3.2461,-3.2461,-3.2456,-3.2455,-3.245,-3.2451,-3.2456,-3.2446,-3.2446,-3.2447,-3.2458,-3.2461,-3.2462,-3.2453,-3.2453,-3.2453,-3.2458,0,-3.2482,-3.2487,-3.2482,-3.2486,-3.2487,-3.2479,-3.248,-3.2478,-3.2474,-3.2473,-3.2468,-3.2467,-3.2462,-3.2461,-3.2461,-3.2456,-3.2458,-3.2455,-3.2451,-3.2451,-3.2452,-3.2463,-3.2467,-3.2472,-3.2459,-3.2459,-3.2459,0,-3.2498,-3.2497,-3.2501,-3.2495,-3.2496,-3.2497,-3.2494,-3.2494,-3.2489,-3.2486,-3.2484,-3.2478,-3.2477,-3.2472,-3.247,-3.2468,-3.2465,-3.2462,-3.2462,-3.2461,-3.2455,-3.2461,-3.2474,-3.2474,-3.246,-3.246,-3.246,0,-3.2511,-3.2511,-3.2513,-3.2512,-3.2506,-3.2507,-3.2504,-3.2499,-3.2498,-3.2494,-3.2493,-3.2489,-3.2487,-3.2484,-3.2476,-3.2473,-3.2474,-3.2469,-3.247,-3.247,-3.2471,-3.2471,-3.2482,-3.2471,-3.2471,-3.2471,-3.2471,0,-3.2525,-3.2528,-3.2519,-3.252,-3.2522,-3.2515,-3.2517,-3.2513,-3.2509,-3.2508,-3.25,-3.2499,-3.249,-3.2487,-3.2481,-3.2479,-3.2479,-3.2475,-3.2473,-3.2475,-3.2475,-3.2473,-3.2473,-3.2471,-3.2471,-3.2471,-3.2471,0,-3.2541,-3.2535,-3.2537,-3.253,-3.2528,-3.253,-3.2524,-3.2523,-3.2518,-3.2517,-3.2516,-3.2508,-3.2504,-3.2496,-3.2491,-3.2486,-3.2485,-3.2483,-3.2487,-3.2486,-3.2488,-3.2487,-3.2497,-3.2498,-3.2487,-3.2487,-3.2487,0,-3.255,-3.2551,-3.2545,-3.2544,-3.2541,-3.254,-3.2538,-3.253,-3.2528,-3.2522,-3.2522,-3.2518,-3.2514,-3.2508,-3.25,-3.2495,-3.2492,-3.2496,-3.2491,-3.2492,-3.249,-3.249,-3.2489,-3.2497,-3.2497,-3.2497,-3.2497,0,-3.2565,-3.2561,-3.256,-3.2556,-3.2554,-3.2551,-3.2547,-3.2546,-3.2537,-3.2535,-3.2532,-3.2529,-3.2522,-3.2517,-3.251,-3.2506,-3.2499,-3.2499,-3.2498,-3.25,-3.2502,-3.25,-3.2489,-3.2498,-3.2498,-3.2498,-3.2498,-3.2498,-3.2576,-3.2577,-3.2571,-3.2569,-3.2565,-3.2561,-3.256,-3.2555,-3.2552,-3.2546,-3.2541,-3.2537,-3.253,-3.2521,-3.2516,-3.2512,-3.2509,-3.2509,-3.2509,-3.2509,-3.2509,-3.2503,-3.2511,-3.2511,-3.2511,-3.2511,-3.2511,0,-3.259,-3.2586,-3.2583,-3.2578,-3.2576,-3.257,-3.2565,-3.2563,-3.256,-3.2554,-3.255,-3.2544,-3.2539,-3.2531,-3.2524,-3.2522,-3.2519,-3.2521,-3.2521,-3.2519,-3.2513,-3.2513,-3.2523,-3.2523,-3.2523,-3.2523,-3.2523,-3.2523,-3.2597,-3.2596,-3.2592,-3.2589,-3.2584,-3.2581,-3.2578,-3.2574,-3.2569,-3.2563,-3.2559,-3.2554,-3.2546,-3.2539,-3.2533,-3.253,-3.2528,-3.253,-3.2527,-3.2521,-3.252,-3.2519,-3.2519,-3.253,-3.253,-3.2533,-3.2533,-3.2533]}]]